This is the latest recevied weather packets stored in our database for station/object W8RD. If no packets are shown the sender has not sent any weather packets the latest 10 day(s).
| Time | Temp. | Humidity | Pressure | Rain* | Wind** | Luminosity | Snow |
|---|---|---|---|---|---|---|---|
| 1777666303 | 28.89° C | 66% | 1011.7 hPa | 0 mm | - | 293 W/m² | - |
| 1777665703 | 28.89° C | 67% | 1011.9 hPa | 0 mm | - | 389 W/m² | - |
| 1777665101 | 30.56° C | 61% | 1012 hPa | 0 mm | - | 449 W/m² | - |
| 1777664498 | 30° C | 60% | 1012.3 hPa | 0 mm | - | 525 W/m² | - |
| 1777663895 | 30.56° C | 62% | 1012.6 hPa | 0 mm | - | 717 W/m² | - |
| 1777663295 | 30.56° C | 61% | 1012.9 hPa | 0 mm | - | 728 W/m² | - |
| 1777662695 | 30.56° C | 62% | 1013 hPa | 0 mm | - | 587 W/m² | - |
| 1777662092 | 30.56° C | 62% | 1013.1 hPa | 0 mm | - | 499 W/m² | - |
| 1777661490 | 31.11° C | 59% | 1013.5 hPa | 0 mm | - | 815 W/m² | - |
| 1777660887 | 31.11° C | 59% | 1013.4 hPa | 0 mm | - | 808 W/m² | - |
| 1777660286 | 30.56° C | 62% | 1013.9 hPa | 0 mm | - | 855 W/m² | - |
| 1777659686 | 30° C | 63% | 1013.9 hPa | 0 mm | - | 882 W/m² | - |
| 1777659085 | 30° C | 66% | 1013.9 hPa | 0 mm | - | 374 W/m² | - |
| 1777658485 | 30.56° C | 64% | 1014 hPa | 0 mm | - | 753 W/m² | - |
| 1777657885 | 30.56° C | 63% | 1014 hPa | 0 mm | - | 908 W/m² | - |
| 1777657285 | 30.56° C | 62% | 1014 hPa | 0 mm | - | 908 W/m² | - |
| 1777656685 | 30.56° C | 64% | 1014.1 hPa | 0 mm | - | 918 W/m² | - |
| 1777656082 | 30° C | 65% | 1014.3 hPa | 0 mm | - | 835 W/m² | - |
| 1777655481 | 29.44° C | 68% | 1014.2 hPa | 0 mm | - | 894 W/m² | - |
| 1777654881 | 29.44° C | 68% | 1014.4 hPa | 0 mm | - | 861 W/m² | - |
| 1777654275 | 29.44° C | 67% | 1014.5 hPa | 0 mm | - | 232 W/m² | - |
| 1777653670 | 28.89° C | 69% | 1014.5 hPa | 0 mm | - | 177 W/m² | - |
| 1777653070 | 28.89° C | 70% | 1014.5 hPa | 0 mm | - | 109 W/m² | - |
| 1777652469 | 28.89° C | 71% | 1014.6 hPa | 0 mm | - | 133 W/m² | - |
| 1777651868 | 28.89° C | 71% | 1014.7 hPa | 0 mm | - | 199 W/m² | - |
* Rain latest hour (hover to see other rain measurements)
** Current wind speed in m/s (hover to see current wind gust speed)